{"data":{"norad_id":59809,"intl_designator":"2024-092K","name":"2024-092K","alt_names":[],"object_type":"PAYLOAD","status":"ACTIVE","operator":null,"country":"CIS","launch_date":"2024-05-16","launch_site_code":"PLMSC","launch_vehicle":null,"mission":null,"orbit_class":"UNKNOWN","rcs_meters":null,"size_class":null,"mass_kg":null,"dimensions":null,"purposes":[],"wikipedia_slug":null,"has_3d_model":false,"image_url":null,"decayed_at":null,"tle_current":{"epoch":"2026-05-25T02:30:31.677120Z","epoch_age_seconds":76167,"freshness":"FRESH","line1":"1 59809U 24092K   26145.10453330  .00018034  00000+0  52092-3 0  9991","line2":"2 59809  97.6537 277.0260 0006970 223.3624 136.7071 15.35698448111694","mean_motion":15.35698448,"eccentricity":0.000697,"inclination_deg":97.6537,"raan_deg":277.026,"arg_perigee_deg":223.3624,"mean_anomaly_deg":136.7071,"bstar":0.00052092,"rev_number":11169,"period_min":93.768408887524,"perigee_km":454.0813209356,"apogee_km":463.61207621141,"semimajor_km":6836.9836985735,"source":"CELESTRAK","updated_at":"2026-05-25T13:38:01.685142Z"}}}